CZ-2D DEB, 44603

Orbit data source: Space-Track

CZ-2D DEB, 44603 is space debris in SSO originally from a launch on Fri, 11 Nov 2016 UTC launched from the Jiuquan Satellite Launch Center, China (JSC). Debris objects in space refer to the collection of defunct objects orbiting the Earth. Examples of debris include non-operational satellites, rocket bodies, and fragments generated from explosions, collisions, or faulty payload assembly.

Loading next visibility...
Identifier
44603, 2016-068C
Orbit
SSO
Country
Flag of CNCN / PRC
Related business
Manufacturer
Unknown
Mission
Spacecraft
Bus & Motor
Unknown
Mass
Unknown
Launch date (UTC)
2016-11-11 (9 years ago)
Launch vehicle
Unknown
Launch site
Jiuquan Satellite Launch Center, China (JSC)
Object type
Payload
Rocket body
Debris
Shape & HBR
Unknown shape, 0.1 m
Radar Cross Section
Small (<0.1 m²)

Expand to show TLE details & history
Last TLE update: 1 day ago

TLE from 1 day ago
0 CZ-2D DEB
1 44603U 16068C   26037.25658570  .00001180  00000-0  76075-3 0  9992
2 44603  98.5451 209.7012 0214120 238.5080 119.5003 13.94178985955887
Epoch: 2026-02-06T06:09Z
TLE epoch observation values (Epoch: 2026-02-06T06:09:29.004Z)
Latitude
-0.00006°
Longitude
-19.06671°
Altitude
996.302 km
Speed
7.313 km/s
True Right ascension
13h 58m 48s
True Declination
0° 00' 00"
Sunlit
Object was in daylight at epoch
Visualization orbit readout
Latitude
Unknown
Longitude
Unknown
Altitude
Unknown
Speed
Unknown
Apparent Right ascension
Unknown
Apparent Declination
Unknown
Sunlit
N/A
Visualization observer readout
Local Sidereal Time
13:52:24
Azimuth
Unknown
Elevation
Unknown
Doppler factor
Unknown
Orbital elements
Apogee altitude
1,067.285 km
Perigee altitude
755.127 km
Semi-major axis
7,289.343 km
Eccentricity
0.02141
Inclination
98.5451°
RAAN
209.7012°
Arg. of periapsis
238.508°
True anomaly
121.60756°
Mean anomaly
119.5003°
Eccentric anomaly
120.55674°
Mean motion
3.48747 °/min
Orbital period
103.23 mins
BSTAR
0.00076075
Loading maneuver chart data...
Computing Atmospheric mass density...
Loading historical data...
Loading historical data...
Loading historical data...
Loading historical data...
Loading historical data...
Loading historical data...
Loading historical data...

Documentation

Showing up to 5 results
|